This demonstration page uses our WeatherBlox Daily Observations layout. Learn more.

Left ArrowRight Arrow

39.95238, -75.16362

Hourly Observations for January 29, 2022

Temp ( °F °C ) Dew Point ( °F °C ) Humidity (%) Winds ( mph kmh ) Pressure ( in mb ) Visibility ( mi km ) Precip ( " mm )
12:54 am 00:54 Cloudy with Light Snow 31 -0.6 27 -2.8 85 85 N 16 26 29.86 1011 1 2 0.03 0.76
1:21 am 01:21 Cloudy with Light Snow 31 -0.6 27 -2.8 85 85 N 17 28 29.85 1011 1 1 0.02 0.51
1:54 am 01:54 Cloudy with Light Snow 30 -1.1 26 -3.3 85 85 N 16 26 29.83 1010 1 1 0.05 1.27
2:27 am 02:27 Cloudy with Light Snow 29 -1.7 25 -3.9 85 85 N 17 28 29.82 1010 1 2 0.03 0.76
2:54 am 02:54 Windy with Snow Likely 29 -1.7 24 -4.4 82 82 N 25 41 29.78 1009 1 2 0.04 1.02
3:44 am 03:44 Cloudy with Light Snow 28 -2.2 24 -4.4 85 85 N 17 28 29.79 1009 1 2 0.02 0.51
3:54 am 03:54 Windy with Snow Likely 28 -2.2 23 -5 81 81 N 20 31 29.78 1008 1 2 0.02 0.51
4:54 am 04:54 Windy with Snow Likely 26 -3.3 21 -6.1 81 81 N 21 33 29.76 1008 1 2 0.02 0.51
5:40 am 05:40 Windy with Snow Likely 26 -3.3 21 -6.1 81 81 N 20 31 29.73 1007 1 2 0.01 0.25
5:54 am 05:54 Windy with Snow Likely 26 -3.3 21 -6.1 81 81 N 22 35 29.74 1007 2 3 0.01 0.25
6:54 am 06:54 Windy with Snow Likely 24 -4.4 19 -7.2 81 81 NNW 20 31 29.74 1007 2 3 0.00 0.00
7:54 am 07:54 Windy with Snow Likely 22 -5.6 17 -8.3 82 82 NNW 21 33 29.75 1008 1 2 0.00 0.00
8:13 am 08:13 Windy with Snow Likely 22 -5.6 16 -8.9 78 78 NNW 21 33 29.75 1008 1 1 0.00 0.00
8:31 am 08:31 Windy with Snow Likely 21 -6.1 16 -8.9 81 81 NNW 22 35 29.76 1008 1 2 0.00 0.00
8:54 am 08:54 Windy with Snow Likely 21 -6.1 16 -8.9 81 81 NNW 21 33 29.76 1008 1 2 0.00 0.00
9:16 am 09:16 Windy with Snow Likely 21 -6.1 15 -9.4 78 78 NNW 23 37 29.76 1008 1 2 0.00 0.00
9:54 am 09:54 Windy with Snow Likely 21 -6.1 15 -9.4 78 78 NNW 20 31 29.77 1008 1 2 0.00 0.00
10:54 am 10:54 Cloudy with Light Snow 20 -6.7 14 -10 78 78 undefined N/A 29.79 1009 1 2 0.00 0.00
10:57 am 10:57 Windy with Snow Likely 20 -6.7 14 -10 78 78 NNW 22 35 29.80 1009 1 2 0.00 0.00
11:54 am 11:54 Windy with Snow Likely 20 -6.7 13 -10.6 74 74 NNW 24 39 29.78 1008 2 3 0.00 0.00
12:14 pm 12:14 Windy with Snow Likely 20 -6.7 12 -11.1 71 71 NW 21 33 29.79 1009 2 3 0.00 0.00
12:28 pm 12:28 Windy with Snow Likely 20 -6.7 13 -10.6 74 74 NNW 22 35 29.78 1008 2 3 0.00 0.00
12:54 pm 12:54 Windy with Snow Likely 20 -6.7 12 -11.1 71 71 NW 25 41 29.76 1008 2 3 0.00 0.00
1:14 pm 13:14 Windy with Snow Likely 20 -6.7 12 -11.1 71 71 NW 26 43 29.77 1008 3 5 0.00 0.00
1:38 pm 13:38 Cloudy with Light Snow 20 -6.7 12 -11.1 71 71 NW 16 26 29.76 1008 7 11 0.00 0.00
1:54 pm 13:54 Cloudy 21 -6.1 12 -11.1 68 68 NW 15 24 29.75 1008 10 16 0.01 0.25
2:54 pm 14:54 Mostly Cloudy 23 -5 6 -14.4 48 48 NNW 22 35 29.74 1007 10 16 0.00 0.00
3:54 pm 15:54 Mostly Cloudy 24 -4.4 0 -17.8 35 35 NW 17 28 29.75 1007 10 16 0.00 0.00
4:54 pm 16:54 Mostly Cloudy 24 -4.4 -1 -18.3 33 33 NW 16 26 29.76 1008 10 16 0.00 0.00
5:54 pm 17:54 Partly Cloudy 24 -4.4 -2 -18.9 32 32 WNW 18 30 29.77 1008 10 16 0.00 0.00
6:54 pm 18:54 Mostly Cloudy 22 -5.6 -2 -18.9 35 35 NW 20 31 29.79 1009 10 16 0.00 0.00
7:54 pm 19:54 Mostly Cloudy 21 -6.1 -4 -20 33 33 NW 16 26 29.83 1010 10 16 0.00 0.00
8:54 pm 20:54 Mostly Cloudy 20 -6.7 -2 -18.9 38 38 NW 16 26 29.86 1011 10 16 0.00 0.00
9:54 pm 21:54 Partly Cloudy 18 -7.8 -2 -18.9 41 41 NW 15 24 29.90 1013 10 16 0.00 0.00
10:54 pm 22:54 Mostly Clear 17 -8.3 -4 -20 39 39 NW 18 30 29.92 1013 10 16 0.00 0.00
11:54 pm 23:54 Mostly Clear 16 -8.9 -4 -20 41 41 NW 14 22 29.95 1014 10 16 0.00 0.00

Powered by AerisWeather